Terminal Aerodrome Forecast
Issued by NWS

Home | Current Version | Previous Version | Text Only | Print | Product List | Glossary On
Versions: 1 2 3 4 5 6 7 8 9 10 11 12 13 14 15 16 17 18 19 20 21 22 23 24 25 26
000
FTUS44 KLZK 162346 CCA
TAFADF
TAF COR
KADF 162346Z 1700/1724 16005KT P6SM VCSH BKN070 OVC100
     FM170400 16004KT 5SM -SHRA BR BKN025 OVC040
     FM170600 VRB03KT 4SM -RA OVC008
     FM171000 VRB03KT 5SM BR OVC012
     FM171800 VRB04KT P6SM BKN015 OVC035=

USA.gov is the U.S. government's official web portal to all federal, state and local government web resources and services.